Погода в Нижнем Мамоне

Россия / Воронежская область     50°11′17″N   40°30′15″E
темп.,
°C
ветер,
м/с
пор.,
м/с
влажн.,
%
обл.,
%
осадки,
мм/ч
давл.,
гПа
погр.,
м
13 апреля, вт
вт1300:00+13в5155586 0.0 1024324
03:00+11в4126094 0.0 1025215
06:00+10в51364100 0.0 1025255
09:00+15вюв7133899 0.0 1024617
12:00+19юв811311 0.0 10231113
15:00+21юв8132758 0.0 10222272
18:00+19юв61034100 0.0 1022385
21:00+15в6134381 0.0 1022289
14 апреля, ср
ср1400:00+12в51350100 0.0 1021265
03:00+11в51153100 0.0 1020262
06:00+9вюв4116068 0.0 1020219
09:00+15юв583978 0.0 1020499
12:00+19юв5627100 0.0 10181410
15:00+20ююв572599 0.0 10172275
18:00+18вюв353785 0.0 1016136
21:00+15вюв41046100 0.0 1016253
15 апреля, чт
чт1500:00+12вюв225894 0.0 101523
03:00+12ссз1159100 0.0 101514
06:00+12з1160100 0.0 101511
09:00+16зюз2250100 0.0 1015546
12:00+19всв144088 0.0 10141888
15:00+17юз444789 0.1 10141325
18:00+17зсз125199 0.0 1014293
21:00+15ююз015854 0.6 101414
16 апреля, пт
пт1600:00+13вюв116896 0.2 101310
03:00+11юз117629 0.2 101410
06:00+11зюз117777 0.0 101419
09:00+13зюз346699 0.0 1015444
12:00+16юз225299 0.0 10151256
15:00+19ююв124074 0.2 10142232
18:00+17юв2240100 0.0 101424
21:00+13сз3556100 0.0 101592
17 апреля, сб
сб1700:00+12сз2260100 0.0 101548
03:00+9юз81174100 0.0 1016395
06:00+8зсз5886100 1.4 1017361
09:00+8зсз458595 2.8 1018456
12:00+10зюз4472100 0.0 1019780
15:00+11зсз3466100 0.1 1020847
18:00+11зсз4566100 0.0 1020853
21:00+9ссз3684100 0.0 1021289